Wind_Speed
8 7 7 8 8 9 10 10 11 11 10 10 11 11 11 11 11 11 12 12 13 13 13 13 13 14 14 14 14 13 13 13 12 11 10 10 10 10 10 10 10 10 10
8 7 7 8 8 8 9 9 10 11 11 11 11 11 11 12 13 13 14 14 14 14 14 15 15 15 15 15 14 14 14 13 12 11 11 11 11 11 11 11 11 11 12
8 7 7 7 7 7 7 8 8 9 10 10 10 10 11 12 13 14 14 15 15 15 15 15 15 15 15 15 14 14 13 13 13 12 11 12 12 13 12 12 12 13 13
8 7 7 6 6 5 5 6 6 7 7 7 8 8 9 10 11 12 13 14 14 14 14 14 14 14 15 14 14 13 13 13 13 12 12 13 14 14 14 14 14 14 15
7 6 6 5 5 4 4 4 5 5 5 5 5 5 6 7 9 10 11 12 12 12 12 12 12 13 13 14 13 13 13 13 13 13 13 14 15 16 16 15 15 15 16
5 4 4 3 3 3 3 4 4 4 3 3 2 2 3 4 6 7 9 10 10 10 10 10 11 11 12 13 13 13 13 13 13 13 14 14 14 16 16 16 16 16 17
4 3 2 1 2 3 4 4 4 4 3 2 1 1 1 2 4 5 7 8 9 9 9 10 10 11 13 14 15 14 13 14 14 14 14 15 14 14 15 16 16 17 17
2 2 1 2 3 4 5 5 5 4 3 3 2 3 3 3 4 6 7 8 9 9 10 11 12 13 14 16 17 16 14 15 16 16 16 16 14 14 15 16 16 16 17
3 3 4 5 5 6 7 6 6 5 5 5 5 5 5 5 6 7 8 10 11 11 12 12 14 15 17 18 19 17 16 17 18 17 17 16 16 15 16 16 16 16 16
5 5 5 6 6 7 7 7 6 6 6 6 6 6 6 6 7 8 9 10 12 13 13 14 15 17 18 20 20 18 16 17 17 17 17 17 16 15 16 16 16 16 16
5 4 5 5 6 6 6 6 6 6 6 6 6 5 6 6 7 8 9 11 13 14 15 15 16 17 19 20 20 17 16 16 16 16 16 16 16 16 15 15 16 16 17
5 4 4 4 4 5 5 5 5 5 6 5 5 5 5 6 6 7 9 11 13 14 15 16 17 18 20 21 20 18 16 16 16 16 16 16 16 16 16 16 17 18 18
5 5 3 2 2 3 4 4 5 5 6 5 5 5 6 7 6 7 10 12 13 15 16 17 18 19 20 21 20 18 17 16 17 17 17 18 18 18 18 18 19 20 20
6 5 4 2 2 2 3 3 4 5 5 5 5 6 7 7 8 8 10 12 13 15 17 18 18 19 20 20 20 19 18 18 18 19 19 20 20 21 21 21 22 23 24
7 6 5 4 3 1 1 2 3 4 5 5 5 6 7 7 8 9 12 12 14 16 17 18 16 16 18 19 20 21 21 21 21 21 21 22 22 23 24 25 26 26 27
9 7 6 5 5 3 2 2 3 4 5 6 6 6 7 8 9 11 12 14 15 16 18 18 17 15 17 18 19 20 21 22 22 22 23 23 24 26 27 28 29 30 31
11 9 8 7 7 6 5 5 5 6 7 7 8 8 8 10 10 11 13 14 15 16 17 17 16 15 16 17 19 20 22 23 23 23 24 26 27 28 29 30 32 32 33
13 11 10 10 9 8 7 7 6 7 8 9 11 11 11 11 12 12 14 14 15 16 16 16 15 14 14 16 19 20 22 24 25 25 25 26 27 28 30 31 32 33 34
16 13 13 12 11 10 10 10 10 10 11 12 13 14 14 14 14 14 15 16 16 17 16 15 13 14 13 14 17 19 21 23 24 26 25 25 26 27 28 29 31 33 34
17 17 15 14 13 13 13 14 14 15 16 16 16 17 17 17 17 18 18 18 18 17 16 15 14 14 14 14 15 16 17 18 20 22 23 23 24 26 27 30 31 33 35
18 17 15 15 15 15 17 19 20 21 22 22 21 22 22 21 21 22 21 21 20 19 17 16 15 15 16 15 15 15 16 18 20 22 23 24 25 27 28 31 33 35 37
20 17 17 15 17 19 21 24 25 26 27 26 26 26 26 25 24 24 25 23 23 22 19 18 17 17 17 17 17 17 18 19 20 21 24 26 28 29 32 34 36 38 41
21 22 22 20 21 23 25 26 29 30 31 31 31 30 30 28 27 27 28 27 26 23 21 21 20 20 21 20 21 21 22 22 24 25 27 29 31 33 36 38 41 43 45
26 25 24 23 25 26 28 30 32 33 34 34 34 33 31 30 29 30 30 30 27 25 24 24 24 24 24 25 25 25 26 27 28 29 32 34 36 38 41 44 46 49 51
29 28 28 28 30 30 32 34 35 36 36 36 36 34 32 31 31 31 32 30 28 27 27 27 28 28 28 28 29 30 31 32 33 34 36 38 41 43 46 49 51 54 56
32 32 32 34 35 36 37 37 36 37 37 36 36 36 35 34 33 32 32 31 31 30 30 31 31 32 32 33 34 35 36 37 38 40 41 43 45 48 51 54 56 59 61
Wind_Direction
258 252 246 243 238 237 236 237 239 240 242 247 254 260 266 272 276 279 279 279 277 276 275 275 275 274 274 273 272 272 271 266 260 255 252 249 246 243 242 243 245 249 255
265 255 247 245 241 238 239 241 242 243 245 248 252 258 265 271 275 277 278 278 278 277 276 276 276 275 274 273 273 271 269 265 260 256 252 251 250 250 249 249 251 255 259
263 253 246 243 238 234 235 238 241 243 245 249 254 260 266 271 274 277 278 278 278 278 278 277 277 277 277 276 274 272 269 268 265 262 259 258 256 255 254 253 254 257 260
255 247 243 240 232 227 228 229 232 236 243 250 255 261 267 273 277 279 279 280 279 280 280 280 279 279 279 278 275 272 270 270 270 269 267 264 261 257 254 253 255 257 259
246 245 243 238 228 219 218 216 216 221 231 240 249 262 271 276 280 282 283 283 283 284 284 283 282 281 279 277 275 273 272 273 274 273 271 270 263 256 251 250 253 256 259
240 243 241 228 209 194 191 187 186 189 196 205 226 265 284 288 288 289 289 289 289 289 287 284 281 279 278 277 274 273 273 273 273 274 275 273 266 257 252 251 254 258 261
233 243 236 190 159 153 154 153 154 158 161 156 139 88 18 339 317 309 303 300 298 295 290 284 280 278 277 276 274 273 273 273 273 274 275 278 269 263 257 257 259 261 264
206 197 143 102 117 130 130 131 134 133 126 113 91 66 42 13 348 333 323 317 312 306 297 289 284 280 277 275 275 275 275 274 274 274 274 276 278 266 261 261 262 264 266
158 133 113 110 113 117 116 112 108 100 91 82 71 57 41 22 2 348 339 331 325 317 308 298 289 283 279 277 277 279 278 277 278 276 276 275 279 273 270 267 266 265 266
148 127 116 117 114 112 107 100 93 84 76 70 61 50 37 21 6 354 343 333 327 320 312 304 296 289 284 282 282 283 283 281 281 281 279 278 279 275 271 270 268 267 266
160 139 131 127 119 111 101 93 85 76 69 61 52 42 29 17 6 356 343 334 327 321 314 307 301 294 290 288 288 288 286 283 282 281 278 275 277 278 274 273 272 270 268
184 165 152 142 125 109 97 86 76 70 63 55 46 33 20 8 1 356 345 338 333 326 316 306 301 296 292 291 292 292 288 282 279 277 275 277 278 277 275 273 272 270 269
199 192 182 169 147 112 93 78 70 66 57 46 40 28 17 9 3 358 357 349 343 337 326 314 300 292 290 292 292 290 286 279 275 272 272 273 274 273 273 272 271 270 269
218 214 204 205 174 122 91 73 66 58 53 48 40 30 24 18 11 5 358 351 344 342 334 322 308 291 287 289 290 288 284 277 272 272 272 272 273 272 272 271 270 269 270
227 226 235 242 238 211 70 47 43 39 34 34 33 30 27 20 13 2 358 351 345 341 339 333 320 301 290 290 289 288 284 279 276 275 273 272 271 271 272 272 271 271 271
223 226 239 251 263 275 300 333 358 9 7 8 11 10 9 6 4 1 357 352 348 346 344 340 330 314 300 295 292 287 281 280 278 275 273 271 271 272 273 274 274 273 273
222 226 238 247 258 272 286 302 325 340 346 344 343 344 349 351 350 351 352 350 348 346 345 341 334 322 302 292 293 287 282 282 283 281 278 276 275 274 275 276 276 275 275
225 233 234 245 254 262 275 289 306 318 322 323 323 325 330 335 337 338 340 341 342 340 337 337 333 326 312 296 290 287 283 282 282 284 282 279 277 276 276 278 278 277 276
226 231 235 243 255 264 273 282 291 300 303 306 309 311 313 318 323 327 330 333 334 334 333 331 332 330 318 307 296 288 285 282 282 283 283 281 278 277 277 277 277 277 277
237 237 239 244 257 273 283 287 290 294 298 299 300 300 302 305 309 314 317 320 322 324 327 326 327 328 323 316 306 297 293 287 284 284 285 284 282 282 280 277 276 276 275
246 245 244 253 265 276 285 289 291 292 295 296 296 295 296 297 301 305 307 309 312 313 314 314 316 318 317 313 309 304 297 293 289 287 289 287 285 284 281 278 276 274 273
262 256 255 262 268 276 282 287 290 290 293 295 294 292 291 291 294 298 301 301 303 305 304 305 305 308 309 309 308 307 304 300 296 293 290 288 286 284 282 280 279 277 276
271 277 271 267 269 276 279 283 287 289 289 291 290 288 288 288 290 291 294 294 298 299 301 300 299 299 300 300 301 302 301 300 298 295 291 288 286 284 283 282 281 280 279
273 278 279 277 280 282 283 285 285 287 288 288 288 287 286 286 287 288 289 291 294 298 299 296 295 294 296 296 297 298 298 298 297 295 292 290 287 285 284 283 282 282 282
278 281 282 282 283 285 287 287 285 286 286 285 285 286 286 285 285 287 290 290 293 298 298 295 293 293 294 294 296 296 295 295 294 292 290 288 287 285 284 283 283 283 282
278 280 282 283 284 287 289 287 286 287 286 285 284 284 283 283 284 286 287 289 293 295 295 294 293 292 292 293 294 294 294 294 293 291 290 288 287 286 286 285 285 284 284
Height
5904 5904 5904 5904 5904 5905 5905 5906 5907 5908 5908 5909 5910 5910 5910 5910 5910 5910 5910 5910 5909 5909 5909 5908 5907 5906 5906 5905 5904 5904 5903 5903 5902 5902 5902 5902 5902 5902 5902 5903 5903 5903 5903
5903 5903 5902 5903 5903 5903 5904 5905 5906 5906 5907 5907 5908 5908 5909 5909 5909 5908 5908 5908 5907 5907 5907 5906 5905 5904 5904 5903 5903 5902 5901 5901 5901 5901 5902 5901 5901 5901 5901 5901 5901 5901 5901
5902 5902 5902 5902 5902 5902 5903 5904 5904 5905 5905 5906 5906 5907 5907 5907 5907 5907 5906 5906 5905 5905 5904 5904 5903 5903 5902 5901 5901 5900 5900 5900 5900 5900 5900 5900 5900 5899 5899 5899 5899 5899 5899
5901 5901 5901 5901 5901 5901 5902 5902 5903 5904 5904 5905 5905 5906 5906 5906 5905 5905 5904 5904 5903 5903 5902 5902 5901 5901 5900 5899 5899 5899 5898 5898 5899 5898 5898 5898 5898 5898 5897 5897 5897 5896 5896
5900 5900 5900 5900 5900 5900 5901 5901 5902 5903 5903 5904 5904 5904 5905 5904 5904 5904 5903 5902 5902 5901 5901 5900 5900 5899 5898 5897 5897 5897 5897 5897 5897 5896 5896 5896 5895 5895 5895 5894 5894 5894 5894
5899 5900 5900 5900 5900 5900 5900 5901 5901 5902 5902 5903 5903 5904 5904 5903 5903 5903 5902 5901 5901 5900 5900 5899 5898 5897 5896 5895 5895 5895 5896 5895 5895 5894 5894 5893 5892 5892 5892 5892 5892 5892 5892
5899 5899 5900 5900 5900 5900 5900 5901 5901 5902 5902 5903 5903 5903 5903 5903 5902 5902 5901 5901 5900 5900 5899 5898 5897 5896 5895 5893 5893 5893 5894 5894 5893 5893 5892 5891 5890 5890 5890 5890 5890 5890 5889
5898 5899 5899 5900 5900 5900 5901 5901 5901 5902 5902 5903 5903 5903 5903 5902 5902 5901 5901 5900 5900 5899 5899 5898 5896 5895 5893 5891 5890 5892 5893 5892 5891 5891 5890 5889 5889 5888 5888 5888 5888 5887 5887
5898 5899 5899 5900 5900 5901 5901 5902 5902 5902 5903 5903 5903 5903 5903 5902 5902 5901 5900 5900 5899 5898 5897 5896 5895 5893 5891 5889 5888 5889 5890 5890 5889 5889 5888 5888 5887 5887 5886 5886 5885 5884 5884
5899 5899 5900 5900 5901 5901 5901 5902 5902 5903 5903 5903 5903 5903 5903 5902 5901 5901 5900 5899 5898 5896 5895 5894 5892 5891 5888 5886 5886 5887 5888 5887 5886 5886 5885 5885 5884 5884 5883 5883 5882 5882 5881
5899 5899 5900 5901 5901 5901 5901 5902 5902 5902 5903 5902 5902 5902 5902 5901 5900 5900 5898 5897 5895 5894 5892 5891 5889 5888 5885 5884 5883 5885 5885 5884 5884 5883 5882 5882 5881 5881 5880 5880 5879 5879 5878
5899 5899 5900 5901 5901 5901 5901 5901 5902 5902 5902 5902 5902 5901 5901 5900 5899 5898 5896 5895 5893 5891 5889 5887 5886 5884 5882 5881 5881 5882 5882 5881 5880 5880 5879 5878 5878 5878 5877 5877 5876 5876 5875
5898 5899 5899 5900 5900 5900 5901 5901 5901 5901 5901 5901 5901 5900 5899 5898 5897 5896 5894 5893 5891 5888 5886 5884 5882 5880 5878 5878 5878 5878 5878 5878 5877 5876 5875 5875 5875 5874 5874 5874 5873 5872 5872
5897 5898 5898 5899 5899 5899 5899 5900 5900 5900 5900 5900 5899 5899 5898 5897 5895 5894 5892 5890 5888 5885 5882 5880 5878 5876 5874 5874 5874 5874 5874 5874 5873 5872 5871 5871 5870 5870 5869 5869 5868 5868 5868
5894 5896 5897 5897 5898 5898 5898 5898 5898 5898 5898 5898 5898 5897 5896 5895 5894 5892 5890 5888 5885 5882 5879 5876 5873 5871 5870 5870 5870 5870 5870 5869 5868 5868 5867 5867 5866 5865 5864 5863 5863 5862 5862
5892 5893 5894 5895 5895 5895 5896 5896 5896 5896 5895 5895 5895 5894 5894 5893 5891 5890 5887 5884 5882 5879 5875 5872 5869 5867 5866 5865 5865 5865 5865 5864 5863 5863 5863 5862 5861 5860 5859 5858 5857 5856 5856
5890 5891 5892 5893 5893 5893 5894 5894 5893 5892 5892 5892 5892 5891 5890 5889 5888 5886 5884 5881 5879 5876 5873 5870 5867 5864 5862 5861 5860 5860 5859 5859 5858 5858 5857 5857 5856 5854 5853 5851 5850 5849 5848
5886 5888 5889 5890 5891 5891 5891 5891 5890 5890 5889 5889 5888 5887 5886 5885 5884 5882 5880 5878 5875 5873 5870 5867 5865 5862 5859 5857 5856 5855 5854 5853 5852 5852 5851 5850 5849 5848 5846 5845 5843 5842 5840
5881 5883 5885 5886 5886 5887 5887 5887 5887 5886 5886 5885 5884 5883 5882 5881 5879 5878 5876 5874 5872 5869 5867 5864 5862 5859 5857 5855 5852 5850 5849 5847 5846 5845 5845 5844 5842 5841 5840 5838 5836 5834 5832
5875 5877 5879 5880 5881 5881 5881 5881 5881 5881 5881 5880 5879 5878 5877 5876 5874 5873 5871 5870 5868 5866 5863 5861 5859 5856 5854 5852 5849 5847 5845 5843 5842 5840 5839 5837 5836 5835 5833 5831 5829 5827 5825
5871 5872 5875 5876 5876 5875 5875 5875 5875 5874 5874 5873 5873 5872 5870 5870 5868 5867 5866 5864 5863 5861 5859 5857 5855 5853 5851 5848 5846 5844 5842 5840 5837 5835 5833 5831 5829 5827 5825 5823 5821 5818 5816
5870 5870 5870 5870 5871 5870 5870 5869 5868 5867 5867 5866 5866 5865 5864 5863 5862 5861 5860 5859 5857 5856 5854 5852 5851 5849 5847 5845 5842 5840 5838 5836 5833 5830 5827 5825 5822 5820 5817 5814 5812 5809 5807
5865 5866 5865 5865 5866 5865 5864 5863 5863 5861 5860 5859 5858 5857 5856 5856 5855 5854 5853 5852 5850 5849 5848 5847 5845 5843 5841 5840 5837 5835 5833 5830 5827 5824 5821 5818 5815 5812 5808 5805 5802 5799 5796
5860 5859 5859 5859 5860 5859 5859 5859 5857 5855 5854 5853 5851 5850 5849 5848 5847 5846 5845 5844 5843 5842 5841 5840 5839 5837 5835 5833 5831 5829 5826 5824 5821 5818 5814 5810 5807 5803 5799 5795 5791 5787 5783
5853 5853 5853 5853 5853 5852 5852 5851 5850 5849 5847 5845 5844 5843 5841 5841 5840 5838 5837 5836 5835 5834 5834 5833 5831 5830 5828 5826 5824 5821 5818 5815 5812 5809 5806 5802 5797 5792 5788 5783 5779 5775 5770
5847 5847 5847 5846 5845 5845 5845 5843 5841 5841 5839 5837 5836 5835 5834 5833 5832 5830 5829 5828 5827 5827 5826 5825 5823 5822 5820 5817 5815 5812 5809 5806 5803 5800 5796 5792 5787 5781 5775 5770 5765 5760 5755